Time,TemperatureF,DewpointF,PressureIn,WindDirection,WindDirectionDegrees,WindSpeedMPH,WindSpeedGustMPH,Humidity,HourlyPrecipIn,Conditions,Clouds,dailyrainin,SoftwareType,DateUTC
2013-02-12 00:01:00,67.0,64.0,30.11,North,0,0.0,0.0,89,99.99,,,-99.99,,2013-02-12 05:01:00,
2013-02-12 00:11:00,67.0,64.0,30.11,SSE,155,1.0,3.0,90,99.99,,,-99.99,,2013-02-12 05:11:00,
2013-02-12 00:21:00,67.0,64.0,30.11,SSE,155,1.0,3.0,90,99.99,,,-99.99,,2013-02-12 05:21:00,
2013-02-12 00:32:00,68.0,66.0,30.10,South,172,3.0,4.0,92,99.99,,,-99.99,,2013-02-12 05:32:00,
2013-02-12 00:42:00,68.0,66.0,30.10,South,172,3.0,4.0,92,99.99,,,-99.99,,2013-02-12 05:42:00,
2013-02-12 00:52:00,68.0,66.0,30.10,SSE,166,2.0,3.0,93,99.99,,,-99.99,,2013-02-12 05:52:00,
2013-02-12 01:02:00,68.0,66.0,30.10,South,181,3.0,4.0,92,99.99,,,-99.99,,2013-02-12 06:02:00,
2013-02-12 01:12:00,68.0,66.0,30.11,SSW,195,2.0,3.0,94,99.99,,,-99.99,,2013-02-12 06:12:00,
2013-02-12 01:22:00,68.0,66.0,30.11,SSW,195,2.0,3.0,94,99.99,,,-99.99,,2013-02-12 06:22:00,
2013-02-12 01:32:00,67.0,65.0,30.10,South,184,3.0,5.0,93,99.99,,,-99.99,,2013-02-12 06:32:00,
2013-02-12 01:42:00,67.0,66.0,30.09,South,174,6.0,7.0,96,99.99,,,-99.99,,2013-02-12 06:42:00,
2013-02-12 01:52:00,67.0,66.0,30.09,South,174,6.0,7.0,96,99.99,,,-99.99,,2013-02-12 06:52:00,
2013-02-12 02:01:00,68.0,67.0,30.09,South,170,6.0,7.0,95,99.99,,,-99.99,,2013-02-12 07:01:00,
2013-02-12 02:11:00,68.0,67.0,30.08,South,188,5.0,7.0,96,99.99,,,-99.99,,2013-02-12 07:11:00,
2013-02-12 02:21:00,68.0,67.0,30.08,South,188,5.0,7.0,96,99.99,,,-99.99,,2013-02-12 07:21:00,
2013-02-12 02:32:00,68.0,67.0,30.08,South,186,5.0,7.0,96,99.99,,,-99.99,,2013-02-12 07:32:00,
2013-02-12 02:42:00,68.0,67.0,30.08,South,186,5.0,7.0,96,99.99,,,-99.99,,2013-02-12 07:42:00,
2013-02-12 02:52:00,68.0,67.0,30.07,South,184,5.0,8.0,96,99.99,,,-99.99,,2013-02-12 07:52:00,
2013-02-12 03:01:00,68.0,67.0,30.07,South,176,4.0,7.0,96,99.99,,,-99.99,,2013-02-12 08:01:00,
2013-02-12 03:11:00,68.0,67.0,30.07,South,176,4.0,7.0,96,99.99,,,-99.99,,2013-02-12 08:11:00,
2013-02-12 03:21:00,67.0,66.0,30.06,South,179,4.0,6.0,97,99.99,,,-99.99,,2013-02-12 08:21:00,
2013-02-12 03:32:00,67.0,66.0,30.06,South,190,4.0,6.0,97,99.99,,,-99.99,,2013-02-12 08:32:00,
2013-02-12 03:42:00,67.0,66.0,30.06,South,190,4.0,6.0,97,99.99,,,-99.99,,2013-02-12 08:42:00,
2013-02-12 03:52:00,66.0,65.0,30.07,SSE,160,3.0,4.0,97,99.99,,,-99.99,,2013-02-12 08:52:00,
2013-02-12 04:02:00,66.0,65.0,30.07,South,184,2.0,3.0,98,99.99,,,-99.99,,2013-02-12 09:02:00,
2013-02-12 04:11:00,65.0,64.0,30.06,South,169,3.0,4.0,97,99.99,,,-99.99,,2013-02-12 09:11:00,
2013-02-12 04:21:00,65.0,64.0,30.06,South,169,3.0,4.0,97,99.99,,,-99.99,,2013-02-12 09:21:00,
2013-02-12 04:32:00,65.0,65.0,30.06,South,173,3.0,4.0,99,99.99,,,-99.99,,2013-02-12 09:32:00,
2013-02-12 04:42:00,64.0,64.0,30.06,South,183,4.0,5.0,99,99.99,,,-99.99,,2013-02-12 09:42:00,
2013-02-12 04:52:00,64.0,64.0,30.06,South,183,4.0,5.0,99,99.99,,,-99.99,,2013-02-12 09:52:00,
2013-02-12 05:01:00,64.0,64.0,30.06,South,173,4.0,5.0,100,99.99,,,-99.99,,2013-02-12 10:01:00,
2013-02-12 05:11:00,64.0,64.0,30.06,SSE,167,4.0,5.0,100,99.99,,,-99.99,,2013-02-12 10:11:00,
2013-02-12 05:21:00,64.0,64.0,30.06,SSE,167,4.0,5.0,100,99.99,,,-99.99,,2013-02-12 10:21:00,
2013-02-12 05:32:00,64.0,64.0,30.06,South,173,3.0,5.0,100,99.99,,,-99.99,,2013-02-12 10:32:00,
2013-02-12 05:43:00,64.0,64.0,30.06,South,173,3.0,5.0,100,99.99,,,-99.99,,2013-02-12 10:43:00,
2013-02-12 05:51:00,64.0,64.0,30.06,South,169,4.0,5.0,100,99.99,,,-99.99,,2013-02-12 10:51:00,
2013-02-12 06:02:00,64.0,64.0,30.07,South,170,3.0,4.0,100,99.99,,,-99.99,,2013-02-12 11:02:00,
2013-02-12 06:11:00,64.0,64.0,30.07,SSE,167,3.0,4.0,100,99.99,,,-99.99,,2013-02-12 11:11:00,
2013-02-12 06:22:00,64.0,64.0,30.07,SSE,167,3.0,4.0,100,99.99,,,-99.99,,2013-02-12 11:22:00,
2013-02-12 06:32:00,63.0,63.0,30.06,South,169,3.0,4.0,100,99.99,,,-99.99,,2013-02-12 11:32:00,
2013-02-12 06:42:00,63.0,63.0,30.06,South,169,3.0,4.0,100,99.99,,,-99.99,,2013-02-12 11:42:00,
2013-02-12 06:52:00,63.0,63.0,30.06,South,170,3.0,5.0,100,99.99,,,-99.99,,2013-02-12 11:52:00,
2013-02-12 07:02:00,63.0,63.0,30.07,SSE,163,2.0,3.0,100,99.99,,,-99.99,,2013-02-12 12:02:00,
2013-02-12 07:11:00,63.0,63.0,30.09,SSE,159,3.0,4.0,100,99.99,,,-99.99,,2013-02-12 12:11:00,
2013-02-12 07:21:00,63.0,63.0,30.09,SSE,159,3.0,4.0,100,99.99,,,-99.99,,2013-02-12 12:21:00,
2013-02-12 07:32:00,63.0,63.0,30.08,North,0,0.0,0.0,100,99.99,,,-99.99,,2013-02-12 12:32:00,
2013-02-12 07:42:00,63.0,63.0,30.08,South,169,4.0,5.0,100,99.99,,,-99.99,,2013-02-12 12:42:00,
2013-02-12 07:53:00,63.0,63.0,30.08,South,169,4.0,5.0,100,99.99,,,-99.99,,2013-02-12 12:53:00,
2013-02-12 08:01:00,64.0,64.0,30.08,South,181,4.0,5.0,100,99.99,,,-99.99,,2013-02-12 13:01:00,
2013-02-12 08:11:00,65.0,65.0,30.09,South,184,2.0,4.0,100,99.99,,,-99.99,,2013-02-12 13:11:00,
2013-02-12 08:22:00,65.0,65.0,30.09,South,184,2.0,4.0,100,99.99,,,-99.99,,2013-02-12 13:22:00,
2013-02-12 08:32:00,66.0,66.0,30.10,South,173,2.0,4.0,100,99.99,,,-99.99,,2013-02-12 13:32:00,
2013-02-12 08:42:00,66.0,66.0,30.10,South,173,2.0,4.0,100,99.99,,,-99.99,,2013-02-12 13:42:00,
2013-02-12 08:52:00,66.0,66.0,30.10,South,174,2.0,4.0,100,99.99,,,-99.99,,2013-02-12 13:52:00,
2013-02-12 09:01:00,67.0,67.0,30.10,SE,146,2.0,4.0,100,99.99,,,-99.99,,2013-02-12 14:01:00,
2013-02-12 09:12:00,67.0,67.0,30.10,SE,146,2.0,4.0,100,99.99,,,-99.99,,2013-02-12 14:12:00,
2013-02-12 09:21:00,68.0,68.0,30.10,SW,231,4.0,7.0,100,99.99,,,-99.99,,2013-02-12 14:21:00,
2013-02-12 09:32:00,70.0,69.0,30.10,South,188,8.0,12.0,98,99.99,,,-99.99,,2013-02-12 14:32:00,
2013-02-12 09:42:00,70.0,69.0,30.10,South,188,8.0,12.0,98,99.99,,,-99.99,,2013-02-12 14:42:00,
2013-02-12 09:52:00,72.0,69.0,30.11,South,183,8.0,12.0,91,99.99,,,-99.99,,2013-02-12 14:52:00,
2013-02-12 10:02:00,73.0,69.0,30.10,SSW,204,8.0,13.0,86,99.99,,,-99.99,,2013-02-12 15:02:00,
2013-02-12 10:11:00,74.0,69.0,30.10,SSW,205,10.0,15.0,84,99.99,,,-99.99,,2013-02-12 15:11:00,
2013-02-12 10:21:00,74.0,69.0,30.10,SSW,205,10.0,15.0,84,99.99,,,-99.99,,2013-02-12 15:21:00,
2013-02-12 10:32:00,75.0,69.0,30.10,SSW,193,8.0,16.0,81,99.99,,,-99.99,,2013-02-12 15:32:00,
2013-02-12 10:42:00,75.0,69.0,30.10,SSW,193,8.0,16.0,81,99.99,,,-99.99,,2013-02-12 15:42:00,
2013-02-12 10:52:00,76.0,67.0,30.10,SW,236,9.0,14.0,74,99.99,,,-99.99,,2013-02-12 15:52:00,
2013-02-12 11:01:00,77.0,66.0,30.10,SSW,193,9.0,15.0,68,99.99,,,-99.99,,2013-02-12 16:01:00,
2013-02-12 11:11:00,77.0,66.0,30.10,SSW,193,9.0,15.0,68,99.99,,,-99.99,,2013-02-12 16:11:00,
2013-02-12 11:22:00,79.0,66.0,30.09,SSW,201,8.0,15.0,65,99.99,,,-99.99,,2013-02-12 16:22:00,
2013-02-12 11:32:00,79.0,66.0,30.09,SSW,193,7.0,14.0,65,99.99,,,-99.99,,2013-02-12 16:32:00,
2013-02-12 11:42:00,79.0,66.0,30.09,SSW,193,7.0,14.0,65,99.99,,,-99.99,,2013-02-12 16:42:00,
2013-02-12 11:52:00,79.0,66.0,30.08,SW,224,8.0,12.0,64,99.99,,,-99.99,,2013-02-12 16:52:00,
2013-02-12 12:01:00,80.0,65.0,30.07,SSW,211,6.0,10.0,61,99.99,,,-99.99,,2013-02-12 17:01:00,
2013-02-12 12:12:00,80.0,63.0,30.07,SSW,208,6.0,10.0,57,99.99,,,-99.99,,2013-02-12 17:12:00,
2013-02-12 12:21:00,80.0,63.0,30.07,SSW,208,6.0,10.0,57,99.99,,,-99.99,,2013-02-12 17:21:00,
2013-02-12 12:32:00,81.0,64.0,30.07,South,172,6.0,10.0,56,99.99,,,-99.99,,2013-02-12 17:32:00,
2013-02-12 12:42:00,81.0,64.0,30.07,South,172,6.0,10.0,56,99.99,,,-99.99,,2013-02-12 17:42:00,
2013-02-12 12:52:00,82.0,63.0,30.06,WSW,242,7.0,10.0,53,99.99,,,-99.99,,2013-02-12 17:52:00,
2013-02-12 13:01:00,84.0,63.0,30.05,SSW,195,6.0,12.0,49,99.99,,,-99.99,,2013-02-12 18:01:00,
2013-02-12 13:11:00,85.0,62.0,30.04,WSW,245,8.0,14.0,46,99.99,,,-99.99,,2013-02-12 18:11:00,
2013-02-12 13:23:00,85.0,62.0,30.04,WSW,245,8.0,14.0,46,99.99,,,-99.99,,2013-02-12 18:23:00,
2013-02-12 13:32:00,84.0,63.0,30.03,WSW,246,5.0,10.0,49,99.99,,,-99.99,,2013-02-12 18:32:00,
2013-02-12 13:41:00,84.0,62.0,30.01,South,179,9.0,14.0,47,99.99,,,-99.99,,2013-02-12 18:41:00,
2013-02-12 13:52:00,84.0,62.0,30.01,South,179,9.0,14.0,47,99.99,,,-99.99,,2013-02-12 18:52:00,
2013-02-12 14:02:00,84.0,60.0,30.01,SW,224,6.0,12.0,45,99.99,,,-99.99,,2013-02-12 19:02:00,
2013-02-12 14:11:00,85.0,61.0,29.98,SW,231,9.0,12.0,45,99.99,,,-99.99,,2013-02-12 19:11:00,
2013-02-12 14:21:00,85.0,61.0,29.98,SW,231,9.0,12.0,45,99.99,,,-99.99,,2013-02-12 19:21:00,
2013-02-12 14:31:00,85.0,62.0,29.98,West,273,6.0,11.0,46,99.99,,,-99.99,,2013-02-12 19:31:00,
2013-02-12 14:42:00,84.0,62.0,29.97,WSW,245,8.0,13.0,48,99.99,,,-99.99,,2013-02-12 19:42:00,
2013-02-12 14:52:00,84.0,62.0,29.97,WSW,245,8.0,13.0,48,99.99,,,-99.99,,2013-02-12 19:52:00,
2013-02-12 15:01:00,84.0,63.0,29.96,SW,218,6.0,10.0,49,99.99,,,-99.99,,2013-02-12 20:01:00,
2013-02-12 15:11:00,84.0,63.0,29.96,SSW,203,5.0,9.0,49,99.99,,,-99.99,,2013-02-12 20:11:00,
2013-02-12 15:21:00,84.0,63.0,29.96,SSW,203,5.0,9.0,49,99.99,,,-99.99,,2013-02-12 20:21:00,
2013-02-12 15:32:00,84.0,63.0,29.95,SW,218,6.0,10.0,49,99.99,,,-99.99,,2013-02-12 20:32:00,
2013-02-12 15:41:00,85.0,62.0,29.95,SSW,210,9.0,14.0,46,99.99,,,-99.99,,2013-02-12 20:41:00,
2013-02-12 15:52:00,85.0,62.0,29.95,SSW,210,9.0,14.0,46,99.99,,,-99.99,,2013-02-12 20:52:00,
2013-02-12 16:01:00,85.0,62.0,29.95,SW,214,6.0,9.0,47,99.99,,,-99.99,,2013-02-12 21:01:00,
2013-02-12 16:11:00,84.0,62.0,29.94,South,188,6.0,11.0,47,99.99,,,-99.99,,2013-02-12 21:11:00,
2013-02-12 16:21:00,84.0,62.0,29.94,South,188,6.0,11.0,47,99.99,,,-99.99,,2013-02-12 21:21:00,
2013-02-12 16:31:00,84.0,62.0,29.94,SSW,201,7.0,12.0,47,99.99,,,-99.99,,2013-02-12 21:31:00,
2013-02-12 16:42:00,84.0,62.0,29.95,SW,221,6.0,10.0,47,99.99,,,-99.99,,2013-02-12 21:42:00,
2013-02-12 16:52:00,84.0,62.0,29.95,SW,221,6.0,10.0,47,99.99,,,-99.99,,2013-02-12 21:52:00,
2013-02-12 17:01:00,83.0,62.0,29.94,SW,226,4.0,8.0,49,99.99,,,-99.99,,2013-02-12 22:01:00,
2013-02-12 17:12:00,83.0,61.0,29.94,SW,224,7.0,11.0,48,99.99,,,-99.99,,2013-02-12 22:12:00,
2013-02-12 17:21:00,83.0,61.0,29.94,SW,224,7.0,11.0,48,99.99,,,-99.99,,2013-02-12 22:21:00,
2013-02-12 17:32:00,83.0,61.0,29.95,SW,233,7.0,12.0,47,99.99,,,-99.99,,2013-02-12 22:32:00,
2013-02-12 17:42:00,83.0,62.0,29.95,WSW,240,6.0,10.0,49,99.99,,,-99.99,,2013-02-12 22:42:00,
2013-02-12 17:52:00,83.0,62.0,29.95,WSW,240,6.0,10.0,49,99.99,,,-99.99,,2013-02-12 22:52:00,
2013-02-12 18:01:00,82.0,61.0,29.95,SW,228,5.0,9.0,50,99.99,,,-99.99,,2013-02-12 23:01:00,
2013-02-12 18:11:00,81.0,62.0,29.94,SW,219,5.0,10.0,53,99.99,,,-99.99,,2013-02-12 23:11:00,
2013-02-12 18:21:00,81.0,62.0,29.94,SW,219,5.0,10.0,53,99.99,,,-99.99,,2013-02-12 23:21:00,
2013-02-12 18:32:00,80.0,63.0,29.95,SW,217,5.0,9.0,56,99.99,,,-99.99,,2013-02-12 23:32:00,
2013-02-12 18:42:00,80.0,63.0,29.95,SW,217,5.0,9.0,56,99.99,,,-99.99,,2013-02-12 23:42:00,
2013-02-12 18:52:00,79.0,62.0,29.95,WSW,245,4.0,6.0,57,99.99,,,-99.99,,2013-02-12 23:52:00,
2013-02-12 19:02:00,79.0,64.0,29.95,WSW,256,6.0,9.0,60,99.99,,,-99.99,,2013-02-13 00:02:00,
2013-02-12 19:11:00,79.0,64.0,29.95,WSW,256,6.0,9.0,60,99.99,,,-99.99,,2013-02-13 00:11:00,
2013-02-12 19:21:00,77.0,63.0,29.96,WSW,249,6.0,9.0,63,99.99,,,-99.99,,2013-02-13 00:21:00,
2013-02-12 19:32:00,76.0,64.0,29.95,SW,225,5.0,10.0,66,99.99,,,-99.99,,2013-02-13 00:32:00,
2013-02-12 19:42:00,76.0,64.0,29.95,SW,225,5.0,10.0,66,99.99,,,-99.99,,2013-02-13 00:42:00,
2013-02-12 19:52:00,76.0,65.0,29.96,WSW,246,5.0,9.0,70,99.99,,,-99.99,,2013-02-13 00:52:00,
2013-02-12 20:01:00,75.0,66.0,29.96,West,264,5.0,10.0,73,99.99,,,-99.99,,2013-02-13 01:01:00,
2013-02-12 20:11:00,75.0,66.0,29.96,West,264,5.0,10.0,73,99.99,,,-99.99,,2013-02-13 01:11:00,
2013-02-12 20:21:00,74.0,67.0,29.97,SW,231,6.0,9.0,78,99.99,,,-99.99,,2013-02-13 01:21:00,
2013-02-12 20:31:00,74.0,68.0,29.97,SW,225,8.0,12.0,81,99.99,,,-99.99,,2013-02-13 01:31:00,
2013-02-12 20:42:00,74.0,70.0,29.98,WSW,250,8.0,12.0,86,99.99,,,-99.99,,2013-02-13 01:42:00,
2013-02-12 20:52:00,74.0,70.0,29.98,WSW,250,8.0,12.0,86,99.99,,,-99.99,,2013-02-13 01:52:00,
2013-02-12 21:01:00,73.0,69.0,29.97,WSW,246,7.0,11.0,87,99.99,,,-99.99,,2013-02-13 02:01:00,
2013-02-12 21:11:00,73.0,70.0,29.97,WSW,253,7.0,9.0,91,99.99,,,-99.99,,2013-02-13 02:11:00,
2013-02-12 21:22:00,73.0,70.0,29.97,WSW,253,7.0,9.0,91,99.99,,,-99.99,,2013-02-13 02:22:00,
2013-02-12 21:31:00,72.0,70.0,29.98,WSW,248,6.0,10.0,92,99.99,,,-99.99,,2013-02-13 02:31:00,
2013-02-12 21:42:00,72.0,70.0,29.98,WSW,248,6.0,10.0,92,99.99,,,-99.99,,2013-02-13 02:42:00,
2013-02-12 21:52:00,72.0,70.0,29.98,WSW,246,5.0,9.0,94,99.99,,,-99.99,,2013-02-13 02:52:00,
2013-02-12 22:01:00,72.0,70.0,29.98,WSW,238,4.0,8.0,95,99.99,,,-99.99,,2013-02-13 03:01:00,
2013-02-12 22:11:00,72.0,71.0,29.98,SW,228,6.0,10.0,96,99.99,,,-99.99,,2013-02-13 03:11:00,
2013-02-12 22:21:00,72.0,71.0,29.98,SW,228,6.0,10.0,96,99.99,,,-99.99,,2013-02-13 03:21:00,
2013-02-12 22:32:00,71.0,70.0,29.98,SSW,208,4.0,7.0,97,99.99,,,-99.99,,2013-02-13 03:32:00,
2013-02-12 22:42:00,71.0,70.0,29.98,SSW,208,4.0,7.0,97,99.99,,,-99.99,,2013-02-13 03:42:00,
2013-02-12 22:51:00,71.0,71.0,29.98,SSW,205,4.0,7.0,99,99.99,,,-99.99,,2013-02-13 03:51:00,
2013-02-12 23:01:00,70.0,70.0,29.98,SSW,197,5.0,8.0,99,99.99,,,-99.99,,2013-02-13 04:01:00,
2013-02-12 23:11:00,70.0,70.0,29.98,SSW,197,5.0,8.0,99,99.99,,,-99.99,,2013-02-13 04:11:00,
2013-02-12 23:21:00,70.0,70.0,29.98,SSW,204,6.0,9.0,100,99.99,,,-99.99,,2013-02-13 04:21:00,
2013-02-12 23:32:00,70.0,70.0,29.98,SW,229,6.0,9.0,100,99.99,,,-99.99,,2013-02-13 04:32:00,
2013-02-12 23:41:00,70.0,70.0,29.98,South,190,5.0,8.0,100,99.99,,,-99.99,,2013-02-13 04:41:00,
2013-02-12 23:52:00,70.0,70.0,29.98,South,190,5.0,8.0,100,99.99,,,-99.99,,2013-02-13 04:52:00,